Tracking 29892 objects as of 21-Nov-2024
HD Live streaming from Space Station
objects crossing your sky now

SL-16 DEB

Track SL-16 DEB now!
10-day predictions


NORAD ID: 22612
Int'l Code: 1993-016W
Perigee: 740.1 km
Apogee: 836.7 km
Inclination: 71.0 °
Period: 100.5 minutes
Semi major axis: 7159 km
RCS: 0.037 m2 (small)
Launch date: March 26, 1993
Source: Commonwealth of Independent States (former USSR) (CIS)
Launch site: TYURATAM MISSILE AND SPACE COMPLEX (TTMTR)

Note: This is SATELLITE DEBRIS
Your satellite tracking list
Your tracking list is empty




NASA's NSSDC Master Catalog

Two Line Element Set (TLE):
1 22612U 93016W   24325.80715383  .00012183  00000-0  43345-2 0  9999
2 22612  70.9777  93.8187 0067479  72.9939  87.7109 14.33146777624625
Source of the keplerian elements: AFSPC